{"data":{"norad_id":53410,"epoch":"2026-05-25T05:12:20.726784Z","epoch_age_seconds":49576,"freshness":"FRESH","line1":"1 53410U 22097Y   26145.21690656  .00000181  00000+0  29450-4 0  9999","line2":"2 53410  53.2131 130.5764 0000902  82.6147 277.4947 15.08843118210209","mean_motion":15.08843118,"eccentricity":9.02e-5,"inclination_deg":53.2131,"raan_deg":130.5764,"arg_perigee_deg":82.6147,"mean_anomaly_deg":277.4947,"bstar":2.945e-5,"rev_number":21020,"period_min":95.437357457596,"perigee_km":539.10986655045,"apogee_km":540.35785045333,"semimajor_km":6917.8708585019,"source":"CELESTRAK","updated_at":"2026-05-25T13:38:17.400343Z"}}